Hourly Weather Kishkino

Today, 22 September, Tuesday

Time Temperature Precipitation Wind Pressure Humidity
00:00 +8°C° 0 mm 4 mps 742 mmHg 90%
01:00 +8°C° 0 mm 4 mps 742 mmHg 91%
02:00 +8°C° 0 mm 4 mps 742 mmHg 92%
03:00 +9°C° 0 mm 3 mps 742 mmHg 95%
04:00 +9°C° 0 mm 3 mps 742 mmHg 95%
05:00 +8°C° 0 mm 4 mps 742 mmHg 95%
06:00 +8°C° 0 mm 4 mps 742 mmHg 95%
07:00 +9°C° 0 mm 5 mps 742 mmHg 92%
08:00 +10°C° 0 mm 5 mps 742 mmHg 88%
09:00 +11°C° 0 mm 6 mps 742 mmHg 84%
10:00 +14°C° 0 mm 6 mps 742 mmHg 78%
11:00 +16°C° 0 mm 7 mps 742 mmHg 71%
12:00 +17°C° 0 mm 7 mps 742 mmHg 64%
13:00 +18°C° 0 mm 7 mps 742 mmHg 62%
14:00 +18°C° 0 mm 7 mps 742 mmHg 60%
15:00 +20°C° 0 mm 7 mps 742 mmHg 58%
16:00 +18°C° 0 mm 7 mps 741 mmHg 62%
17:00 +17°C° 0 mm 6 mps 741 mmHg 66%
18:00 +16°C° 0 mm 5 mps 741 mmHg 69%
19:00 +15°C° 0 mm 5 mps 741 mmHg 73%
20:00 +14°C° 0 mm 5 mps 741 mmHg 76%
21:00 +13°C° 0 mm 5 mps 742 mmHg 79%
22:00 +12°C° 0 mm 4 mps 742 mmHg 82%
23:00 +12°C° 0 mm 4 mps 741 mmHg 86%

Tomorrow, 23 September, Wednesday

Time Temperature Precipitation Wind Pressure Humidity
00:00 +11°C° 0 mm 4 mps 741 mmHg 89%
01:00 +11°C° 0 mm 3 mps 742 mmHg 90%
02:00 +10°C° 0 mm 3 mps 742 mmHg 91%
03:00 +10°C° 0 mm 3 mps 742 mmHg 92%
04:00 +10°C° 0 mm 3 mps 742 mmHg 92%
05:00 +9°C° 0 mm 3 mps 742 mmHg 92%
06:00 +9°C° 0 mm 3 mps 742 mmHg 92%
07:00 +11°C° 0 mm 3 mps 743 mmHg 88%
08:00 +13°C° 0 mm 2 mps 743 mmHg 83%
09:00 +14°C° 0 mm 2 mps 743 mmHg 78%
10:00 +16°C° 0 mm 2 mps 743 mmHg 72%
11:00 +17°C° 0 mm 2 mps 743 mmHg 66%
12:00 +19°C° 0 mm 2 mps 743 mmHg 60%
13:00 +20°C° 0 mm 3 mps 743 mmHg 60%
14:00 +20°C° 0 mm 3 mps 743 mmHg 59%
15:00 +21°C° 0 mm 3 mps 743 mmHg 58%
16:00 +19°C° 0 mm 3 mps 742 mmHg 63%
17:00 +18°C° 0 mm 2 mps 742 mmHg 68%
18:00 +17°C° 0 mm 2 mps 742 mmHg 74%
19:00 +16°C° 0 mm 2 mps 742 mmHg 76%
20:00 +15°C° 0 mm 2 mps 742 mmHg 79%
21:00 +15°C° 0 mm 2 mps 742 mmHg 82%
22:00 +14°C° 0 mm 2 mps 742 mmHg 81%
23:00 +14°C° 0 mm 2 mps 742 mmHg 81%

Day after tomorrow, 24 September, Thursday

Time Temperature Precipitation Wind Pressure Humidity
00:00 +13°C° 0 mm 2 mps 742 mmHg 81%
01:00 +13°C° 0 mm 2 mps 743 mmHg 81%
02:00 +13°C° 0 mm 2 mps 743 mmHg 81%
03:00 +12°C° 0 mm 1 mps 743 mmHg 80%
04:00 +12°C° 0 mm 1 mps 743 mmHg 80%
05:00 +12°C° 0 mm 1 mps 743 mmHg 80%
06:00 +12°C° 0 mm 1 mps 743 mmHg 80%
07:00 +13°C° 0 mm 1 mps 743 mmHg 76%
08:00 +14°C° 0 mm 2 mps 743 mmHg 71%
09:00 +16°C° 0 mm 2 mps 744 mmHg 67%
10:00 +17°C° 0 mm 2 mps 744 mmHg 62%
11:00 +19°C° 0 mm 2 mps 744 mmHg 57%
12:00 +20°C° 0 mm 2 mps 744 mmHg 52%
13:00 +21°C° 0 mm 2 mps 744 mmHg 50%
14:00 +21°C° 0 mm 2 mps 744 mmHg 48%
15:00 +23°C° 0 mm 2 mps 744 mmHg 45%
16:00 +20°C° 0 mm 2 mps 744 mmHg 50%
17:00 +19°C° 0 mm 2 mps 743 mmHg 55%
18:00 +19°C° 0 mm 1 mps 743 mmHg 60%
19:00 +17°C° 0 mm 2 mps 743 mmHg 62%
20:00 +16°C° 0 mm 2 mps 743 mmHg 64%
21:00 +15°C° 0 mm 2 mps 744 mmHg 66%
22:00 +14°C° 0 mm 2 mps 744 mmHg 67%
23:00 +14°C° 0 mm 2 mps 744 mmHg 68%

25 September, Friday

Time Temperature Precipitation Wind Pressure Humidity
00:00 +14°C° 0 mm 2 mps 744 mmHg 69%
01:00 +13°C° 0 mm 2 mps 744 mmHg 70%
02:00 +13°C° 0 mm 2 mps 744 mmHg 71%
03:00 +13°C° 0 mm 2 mps 744 mmHg 72%
04:00 +12°C° 0 mm 2 mps 744 mmHg 73%
05:00 +12°C° 0 mm 2 mps 744 mmHg 75%
06:00 +12°C° 0 mm 2 mps 743 mmHg 76%
07:00 +13°C° 0 mm 2 mps 744 mmHg 72%
08:00 +14°C° 0 mm 2 mps 744 mmHg 69%
09:00 +16°C° 0 mm 3 mps 744 mmHg 65%
10:00 +17°C° 0 mm 3 mps 744 mmHg 60%
11:00 +19°C° 0 mm 3 mps 744 mmHg 55%
12:00 +21°C° 0 mm 3 mps 744 mmHg 50%
13:00 +21°C° 0 mm 3 mps 744 mmHg 48%
14:00 +22°C° 0 mm 4 mps 744 mmHg 47%
15:00 +23°C° 0 mm 4 mps 743 mmHg 46%
16:00 +21°C° 0 mm 3 mps 743 mmHg 51%
17:00 +20°C° 0 mm 3 mps 743 mmHg 57%
18:00 +18°C° 0 mm 3 mps 743 mmHg 62%
19:00 +17°C° 0 mm 3 mps 743 mmHg 63%
20:00 +17°C° 0 mm 3 mps 743 mmHg 64%
21:00 +16°C° 0 mm 3 mps 743 mmHg 66%
22:00 +16°C° 0 mm 3 mps 743 mmHg 66%
23:00 +14°C° 0 mm 4 mps 743 mmHg 66%

26 September, Saturday

Time Temperature Precipitation Wind Pressure Humidity
00:00 +14°C° 0 mm 4 mps 743 mmHg 67%
01:00 +13°C° 0 mm 4 mps 743 mmHg 68%
02:00 +13°C° 0 mm 3 mps 743 mmHg 69%
03:00 +12°C° 0 mm 3 mps 743 mmHg 69%
04:00 +12°C° 0 mm 3 mps 743 mmHg 69%
05:00 +12°C° 0 mm 4 mps 743 mmHg 68%
06:00 +11°C° 0 mm 4 mps 743 mmHg 67%
07:00 +12°C° 0 mm 4 mps 743 mmHg 62%
08:00 +13°C° 0 mm 4 mps 743 mmHg 57%
09:00 +14°C° 0 mm 5 mps 744 mmHg 52%
10:00 +16°C° 0 mm 5 mps 744 mmHg 49%
11:00 +17°C° 0 mm 5 mps 744 mmHg 46%
12:00 +20°C° 0 mm 6 mps 744 mmHg 43%
13:00 +20°C° 0 mm 6 mps 744 mmHg 43%
14:00 +21°C° 0 mm 6 mps 744 mmHg 43%
15:00 +21°C° 0 mm 6 mps 744 mmHg 44%
16:00 +20°C° 0 mm 5 mps 743 mmHg 48%
17:00 +19°C° 0 mm 5 mps 743 mmHg 53%
18:00 +18°C° 0 mm 4 mps 743 mmHg 58%
19:00 +16°C° 0 mm 5 mps 743 mmHg 58%
20:00 +16°C° 0 mm 5 mps 743 mmHg 58%
21:00 +15°C° 0 mm 5 mps 743 mmHg 59%
22:00 +15°C° 0 mm 5 mps 743 mmHg 57%
23:00 +15°C° 0 mm 5 mps 744 mmHg 55%

27 September, Sunday

Time Temperature Precipitation Wind Pressure Humidity
00:00 +14°C° 0 mm 5 mps 744 mmHg 54%
01:00 +14°C° 0 mm 5 mps 744 mmHg 53%
02:00 +14°C° 0 mm 5 mps 744 mmHg 53%
03:00 +13°C° 0 mm 5 mps 744 mmHg 52%
04:00 +13°C° 0 mm 5 mps 744 mmHg 52%
05:00 +12°C° 0 mm 5 mps 744 mmHg 51%
06:00 +12°C° 0 mm 5 mps 745 mmHg 50%
07:00 +13°C° 0 mm 5 mps 745 mmHg 49%
08:00 +13°C° 0 mm 6 mps 745 mmHg 49%
09:00 +14°C° 0 mm 6 mps 745 mmHg 48%
10:00 +15°C° 0 mm 7 mps 745 mmHg 45%
11:00 +16°C° 0 mm 7 mps 746 mmHg 42%
12:00 +18°C° 0 mm 7 mps 746 mmHg 39%
13:00 +18°C° 0 mm 7 mps 745 mmHg 39%
14:00 +18°C° 0 mm 7 mps 745 mmHg 39%
15:00 +18°C° 0 mm 7 mps 745 mmHg 39%
16:00 +17°C° 0 mm 6 mps 745 mmHg 42%
17:00 +16°C° 0 mm 6 mps 745 mmHg 45%
18:00 +15°C° 0 mm 5 mps 745 mmHg 48%
19:00 +15°C° 0 mm 6 mps 745 mmHg 47%
20:00 +14°C° 0 mm 6 mps 745 mmHg 45%
21:00 +14°C° 0 mm 6 mps 745 mmHg 44%
22:00 +14°C° 0 mm 6 mps 745 mmHg 44%
23:00 +14°C° 0 mm 6 mps 745 mmHg 44%
Show more